Regional Weather Roundup
Issued by NWS

Home | Current Version | Previous Version | Graphics & Text | Print | Product List | Glossary On
Versions: 1 2 3 4 5 6 7 8 9 10 11 12 13 14 15 16 17 18 19 20 21 22 23 24 25 26 27 28 29 30 31 32 33 34 35 36 37 38 39 40 41 42 43 44 45 46 47 48 49 50
000
ASUS43 KLMK 280202
RWRKY
KENTUCKY REGIONAL WEATHER ROUNDUP
NATIONAL WEATHER SERVICE LOUISVILLE KY
1000 PM EDT SAT MAY 27 2017

NOTE "FAIR" INDICATES FEW OR NO CLOUDS BELOW 12,000 FEET
WITH NO SIGNIFICANT WEATHER AND/OR OBSTRUCTIONS TO VISIBILITY.

KYZ001>023-026-027-061>063-070>075-280300-
WESTERN AND SOUTH CENTRAL KENTUCKY

CITY           SKY/WX    TMP DP  RH WIND       PRES   REMARKS
PADUCAH        LGT RAIN  65  61  87 CALM      29.89R
HENDERSON      LGT RAIN  70  61  73 W5        29.89
OWENSBORO      CLOUDY    70  61  73 W16G23    29.88F
HOPKINSVILLE   CLOUDY    65  65 100 SW8       29.87F
BOWLING GREEN  LGT RAIN  67  64  90 CALM      29.97R
GLASGOW        NOT AVBL
$$

KYZ024-025-028>034-038-045-046-053-280300-
NORTH CENTRAL KENTUCKY

CITY           SKY/WX    TMP DP  RH WIND       PRES   REMARKS
LOUISVILLE/SDF CLOUDY    68  63  84 CALM      29.85F
LOUISVILLE/LOU CLOUDY    69  65  86 E5        29.87R
FORT KNOX      CLOUDY    66  63  92 W7        29.85S
$$

KYZ035>037-039>044-047>052-055>060-089>105-280300-
NORTHEAST KENTUCKY

CITY           SKY/WX    TMP DP  RH WIND       PRES   REMARKS
LEXINGTON      CLOUDY    69  63  81 W13       29.93R
COVINGTON      CLOUDY    74  68  81 S7        29.83F THUNDER
FRANKFORT      LGT RAIN  67  62  84 W6G25     29.89R
$$

KYZ054-064>069-076>088-106>120-280300-
SOUTHEAST KENTUCKY

CITY           SKY/WX    TMP DP  RH WIND       PRES   REMARKS
JACKSON        CLOUDY    64  62  93 SE5       29.91S
LONDON         RAIN      65  61  87 NW10G20   29.94R
SOMERSET       NOT AVBL
MIDDLESBORO    CLOUDY    67  66  99 N16G31    29.99R
MONTICELLO     RAIN      64  62  93 W6G24     30.03S
$$





USA.gov is the U.S. government's official web portal to all federal, state and local government web resources and services.